Location: Newark
(16.3678°N, 77.8722°E)
Time: 10:41:16
(UTC+00:00)

S-56A Canister/Altair - Pass Details

Date: 13 December 2019
Orbit: 634 x 2498 km, 38.9° (Epoch: 24 January)

Event Time Altitude Azimuth Distance (km) Brightness Sun altitude
Rises 23:38:07 0° 191° (S) 4,036 11.3 -20.9°
Reaches altitude 10° 23:41:22 10° 176° (S) 3,353 11.1 -20.2°
Maximum altitude 23:47:49 23° 127° (SE) 3,008 11.3 -18.7°
Drops below altitude 10° 23:56:10 10° 82° (E) 4,482 12.4 -16.8°
Sets 00:01:21 0° 70° (ENE) 5,773 12.8 -15.6°
